This demonstration page uses our WeatherBlox Daily Observations layout. Learn more.

Left ArrowRight Arrow

Hourly Observations for October 3, 2022

Temp ( °F °C ) Dew Point ( °F °C ) Humidity (%) Winds ( mph kmh ) Pressure ( in mb ) Visibility ( mi km ) Precip ( " mm )
12:55 am 00:55 Clear 60 15.3 43 6 54 54 SE 5 7 30.27 1025 10 16 0.00 0.00
1:55 am 01:55 Clear 58 14.2 41 5 54 54 SE 5 7 30.26 1025 10 16 0.00 0.00
2:55 am 02:55 Clear 56 13.4 40 4.3 54 54 SE 5 7 30.26 1025 10 16 0.00 0.00
3:55 am 03:55 Clear 56 13.1 40 4.3 55 55 VRB 1 2 30.25 1024 10 16 0.00 0.00
4:55 am 04:55 Clear 55 13 40 4.7 57 57 SE 5 7 30.26 1025 10 16 0.00 0.00
5:55 am 05:55 Clear 54 12.2 41 4.9 61 61 SE 6 9 30.26 1025 10 16 0.00 0.00
6:55 am 06:55 Clear 53 11.9 41 5.1 63 63 Calm 30.28 1025 10 16 0.00 0.00
7:55 am 07:55 Mostly Sunny 54 12 42 5.4 64 64 E 3 6 30.29 1026 10 16 0.00 0.00
8:55 am 08:55 Sunny 58 14.3 44 6.6 60 60 SE 8 13 30.30 1026 10 16 0.00 0.00
9:55 am 09:55 Sunny 63 17.1 44 6.6 50 50 SSE 8 13 30.30 1026 10 16 0.00 0.00
10:55 am 10:55 Sunny 69 20.5 44 6.4 40 40 SSE 13 20 30.28 1026 10 16 0.00 0.00
11:55 am 11:55 Partly Cloudy 74 23.3 42 5.7 32 32 SSE 14 22 30.27 1025 10 16 0.00 0.00
12:55 pm 12:55 Partly Cloudy 78 25.4 42 5.6 28 28 SSE 12 19 30.25 1024 10 16 0.00 0.00
1:11 pm 13:11 Partly Cloudy 79 26 41 5 26 26 S 14 22 30.24 1024 10 16 0.00 0.00
1:55 pm 13:55 Partly Cloudy 80 26.8 42 5.7 26 26 SSE 14 22 30.22 1023 10 16 0.00 0.00
2:55 pm 14:55 Partly Cloudy 81 27.3 41 4.9 24 24 SSE 14 22 30.19 1022 10 16 0.00 0.00
3:55 pm 15:55 Mostly Cloudy 82 27.7 40 4.7 23 23 SSE 15 24 30.17 1022 10 16 0.00 0.00
4:55 pm 16:55 Mostly Cloudy 81 27.3 41 4.9 24 24 SE 12 19 30.16 1021 10 16 0.00 0.00
5:55 pm 17:55 Mostly Cloudy 79 26.3 40 4.7 25 25 SE 13 20 30.15 1021 10 16 0.00 0.00
6:55 pm 18:55 Mostly Cloudy 73 22.5 42 5.4 33 33 SE 8 13 30.16 1021 10 16 0.00 0.00
7:55 pm 19:55 Mostly Cloudy 69 20.5 42 5.7 38 38 SE 7 11 30.16 1021 10 16 0.00 0.00
8:55 pm 20:55 Mostly Cloudy 65 18.4 43 5.9 44 44 SE 6 9 30.17 1022 10 16 0.00 0.00
9:55 pm 21:55 Mostly Cloudy 65 18.1 44 6.6 47 47 ESE 6 9 30.17 1022 10 16 0.00 0.00
10:55 pm 22:55 Mostly Cloudy 64 17.7 44 6.5 48 48 SE 7 11 30.17 1022 10 16 0.00 0.00
11:55 pm 23:55 Clear 61 16.3 44 6.7 53 53 SE 6 9 30.18 1022 10 16 0.00 0.00

Powered by AerisWeather